Year,Month,Day,Hour,Minute,Value (Times are PST for temperature in C)
2020,04,25,08,34,30.80
2020,04,25,08,35,30.90
2020,04,25,08,36,30.80
2020,04,25,08,37,30.80
2020,04,25,08,38,30.80
2020,04,25,08,39,30.80
2020,04,25,08,40,30.80
2020,04,25,08,41,30.80
2020,04,25,08,42,30.80
2020,04,25,08,43,30.80
2020,04,25,08,44,30.80
2020,04,25,08,45,30.80
2020,04,25,09,18,31.70
2020,04,25,09,19,31.70
2020,04,25,09,20,31.60
2020,04,25,09,21,31.60
2020,04,25,09,22,31.60
2020,04,25,09,23,31.60
2020,04,25,09,24,31.60
2020,04,25,09,25,31.60
2020,04,25,09,26,31.60
2020,04,25,09,27,31.60
2020,04,25,09,28,31.60
2020,04,25,09,29,31.60
2020,04,25,10,37,29.70
2020,04,25,10,38,29.70
2020,04,25,10,39,29.60
2020,04,25,10,40,29.50
2020,04,25,10,41,29.50
2020,04,25,10,42,29.50
2020,04,25,10,43,29.50
2020,04,25,10,44,29.50
2020,04,25,10,45,29.50
2020,04,25,10,46,29.50
2020,04,25,10,47,29.50
2020,04,25,10,48,29.50
2020,04,25,10,49,29.50
2020,04,25,10,50,29.50
2020,04,25,11,06,29.90
2020,04,25,11,07,29.80
2020,04,25,11,08,29.80
2020,04,25,11,09,29.80
2020,04,25,11,10,29.80
2020,04,25,11,11,29.80
2020,04,25,11,12,29.80
2020,04,25,11,13,29.80
2020,04,25,11,14,29.80
2020,04,25,11,15,29.80
2020,04,25,11,16,30.20
2020,04,25,11,17,30.20
2020,04,25,11,18,30.20
2020,04,25,11,19,30.20
2020,04,25,11,20,30.20
2020,04,25,11,21,30.20
2020,04,25,11,22,30.20
2020,04,25,11,23,30.20
2020,04,25,11,24,30.20
2020,04,25,11,25,30.20
2020,04,25,11,26,30.20
2020,04,25,11,27,30.20
2020,04,25,11,28,30.20
2020,04,25,11,29,30.20
2020,04,25,11,30,30.20
2020,04,25,11,46,31.30
2020,04,25,11,47,31.30
2020,04,25,11,48,31.40
2020,04,25,11,49,31.50
2020,04,25,11,50,31.50
2020,04,25,11,51,31.50
2020,04,25,11,52,31.50
2020,04,25,11,53,31.50
2020,04,25,11,54,31.40
2020,04,25,11,55,31.30
2020,04,25,11,56,31.30
2020,04,25,11,57,31.30
2020,04,25,11,58,31.30
2020,04,25,11,59,31.30
2020,04,25,12,00,31.30
2020,04,25,12,01,31.30
2020,04,25,12,02,31.20
2020,04,25,12,03,31.10
2020,04,25,12,04,31.10
2020,04,25,12,05,31.10
2020,04,25,12,06,31.10
2020,04,25,12,07,31.10
2020,04,25,12,08,31.10
2020,04,25,12,09,31.00
2020,04,25,12,10,30.90
2020,04,25,12,11,30.80
2020,04,25,12,12,30.80
2020,04,25,12,13,30.80
2020,04,25,12,14,30.80
2020,04,25,12,15,30.80
2020,04,25,12,16,30.80
2020,04,25,12,17,30.80
2020,04,25,12,18,30.80
2020,04,25,12,19,30.80
2020,04,25,12,20,30.80
2020,04,25,12,21,30.70
2020,04,25,12,22,30.70
2020,04,25,12,23,30.70
2020,04,25,12,24,30.70
2020,04,25,12,25,30.70
2020,04,25,12,26,30.70
2020,04,25,12,27,30.70
2020,04,25,12,28,30.70
2020,04,25,12,29,30.70
2020,04,25,12,30,30.70
2020,04,25,12,46,30.20
2020,04,25,12,47,30.10
2020,04,25,12,48,30.10
2020,04,25,12,49,30.10
2020,04,25,12,50,30.10
2020,04,25,12,51,30.10
2020,04,25,12,52,30.10
2020,04,25,12,53,30.10
2020,04,25,12,54,30.10
2020,04,25,12,55,30.10
2020,04,25,12,56,30.10
2020,04,25,12,57,30.30
2020,04,25,12,58,30.30
2020,04,25,12,59,30.30
2020,04,25,13,00,30.30
2020,04,25,13,01,30.30
2020,04,25,13,02,30.30
2020,04,25,13,03,30.30
2020,04,25,13,04,30.30
2020,04,25,13,05,30.30
2020,04,25,13,06,30.30
2020,04,25,13,07,30.30
2020,04,25,13,58,31.00
2020,04,25,13,59,31.00
2020,04,25,14,00,30.90
2020,04,25,14,01,30.90
2020,04,25,14,02,30.90
2020,04,25,14,03,30.90
2020,04,25,14,04,30.90
2020,04,25,14,05,30.90
2020,04,25,14,06,30.90
2020,04,25,14,07,30.90
2020,04,25,14,08,30.90
2020,04,25,14,09,30.90
2020,04,25,14,25,30.50
2020,04,25,14,26,30.50
2020,04,25,14,27,30.50
2020,04,25,14,28,30.50
2020,04,25,14,29,30.60
2020,04,25,14,30,30.60
2020,04,25,14,31,30.60
2020,04,25,14,32,30.70
2020,04,25,14,33,30.80
2020,04,25,14,34,30.90
2020,04,25,14,35,30.90
2020,04,25,14,36,31.00
2020,04,25,14,37,31.10
2020,04,25,14,38,31.10
2020,04,25,14,39,31.20
2020,04,25,14,40,31.20
2020,04,25,14,41,31.20
2020,04,25,14,42,31.20
2020,04,25,14,43,31.20
2020,04,25,14,44,31.30
2020,04,25,14,45,31.30
2020,04,25,14,46,31.30
2020,04,25,14,47,31.30
2020,04,25,14,48,31.30
2020,04,25,14,49,31.30
2020,04,25,14,50,31.20
2020,04,25,14,51,31.20
2020,04,25,14,52,31.20
2020,04,25,14,53,31.20
2020,04,25,14,54,31.20
2020,04,25,14,55,31.20
2020,04,25,14,56,31.20
2020,04,25,14,57,31.20
2020,04,25,14,58,31.20
2020,04,25,14,59,31.00
2020,04,25,15,00,30.90
2020,04,25,15,01,31.00
2020,04,25,15,02,31.00
2020,04,25,15,03,31.00
2020,04,25,15,04,31.10
2020,04,25,15,05,31.10
2020,04,25,15,06,31.20
2020,04,25,15,07,31.20
2020,04,25,15,08,31.10
2020,04,25,15,09,31.10
2020,04,25,15,10,30.90
2020,04,25,15,11,30.90
2020,04,25,15,12,30.90
2020,04,25,15,13,30.90
2020,04,25,15,14,30.90
2020,04,25,15,15,30.90
2020,04,25,15,16,30.90
2020,04,25,15,17,30.90
2020,04,25,15,18,31.00
2020,04,25,15,19,31.00
2020,04,25,15,20,30.90
2020,04,25,15,21,30.90
2020,04,25,15,22,30.90
2020,04,25,15,23,30.90
2020,04,25,15,24,30.90
2020,04,25,15,25,30.90
2020,04,25,15,26,30.90
2020,04,25,15,27,30.90
2020,04,25,15,28,30.80
2020,04,25,15,29,30.80
2020,04,25,15,30,30.80
2020,04,25,15,31,30.80
2020,04,25,15,32,30.80
2020,04,25,15,33,30.80
2020,04,25,15,34,30.80
2020,04,25,15,35,30.80
2020,04,25,15,36,30.80
2020,04,25,15,37,30.80
2020,04,25,15,38,30.80
2020,04,25,15,39,30.90
2020,04,25,15,40,30.80
2020,04,25,15,41,30.80
2020,04,25,15,42,30.80
2020,04,25,15,43,30.80
2020,04,25,15,44,30.80
2020,04,25,15,45,30.80
2020,04,25,15,46,30.80
2020,04,25,15,47,30.80
2020,04,25,15,48,30.80
2020,04,25,15,49,30.80
2020,04,25,16,23,31.70
2020,04,25,16,24,31.70
2020,04,25,16,25,31.70
2020,04,25,16,26,31.70
2020,04,25,16,27,31.70
2020,04,25,16,28,31.60
2020,04,25,16,29,31.60
2020,04,25,16,30,31.60
2020,04,25,16,31,31.60
2020,04,25,16,32,31.60
2020,04,25,16,33,31.60
2020,04,25,16,34,31.60
2020,04,25,16,35,31.60
2020,04,25,16,36,31.60
2020,04,25,16,37,31.60
2020,04,25,16,38,31.60
2020,04,25,16,54,32.30
2020,04,25,16,55,32.20
2020,04,25,16,56,32.20
2020,04,25,16,57,32.20
2020,04,25,16,58,32.20
2020,04,25,16,59,32.20
2020,04,25,17,00,32.20
2020,04,25,17,01,32.20
2020,04,25,17,02,32.20
2020,04,25,17,03,32.20
2020,04,25,17,04,32.20
2020,04,25,17,05,32.20
2020,04,25,17,06,32.10
2020,04,25,17,07,31.90
2020,04,25,17,08,31.90
2020,04,25,17,09,31.90
2020,04,25,17,10,31.90
2020,04,25,17,11,31.90
2020,04,25,17,12,31.90
2020,04,25,17,13,31.90
2020,04,25,17,14,31.90
2020,04,25,17,15,31.90
2020,04,25,17,16,31.90
2020,04,25,17,32,30.90
2020,04,25,17,33,30.90
2020,04,25,17,34,30.80
2020,04,25,17,35,30.80
2020,04,25,17,36,30.80
2020,04,25,17,37,30.80
2020,04,25,17,38,30.80
2020,04,25,17,39,30.80
2020,04,25,17,40,30.80
2020,04,25,17,41,30.80
2020,04,25,17,42,30.80
2020,04,25,17,43,30.40
2020,04,25,17,44,30.40
2020,04,25,17,45,30.40
2020,04,25,17,46,30.40
2020,04,25,17,47,30.40
2020,04,25,17,48,30.40
2020,04,25,17,49,30.40
2020,04,25,17,50,30.40
2020,04,25,17,51,30.40
2020,04,25,17,52,30.40
2020,04,25,17,53,30.40
2020,04,25,18,10,30.40
2020,04,25,18,11,30.40
2020,04,25,18,12,30.30
2020,04,25,18,13,30.30
2020,04,25,18,14,30.30
2020,04,25,18,15,30.30
2020,04,25,18,16,30.30
2020,04,25,18,17,30.30
2020,04,25,18,18,30.30
2020,04,25,18,19,30.30
2020,04,25,18,20,30.30
2020,04,25,18,21,30.30
2020,04,25,18,22,30.30
2020,04,25,18,23,30.20
2020,04,25,18,24,30.20
2020,04,25,18,25,30.20
2020,04,25,18,26,30.20
2020,04,25,18,27,30.20
2020,04,25,18,28,30.20
2020,04,25,18,29,30.20
2020,04,25,18,30,30.20
2020,04,25,18,31,30.20
2020,04,25,18,32,30.30
2020,04,25,18,33,30.20
2020,04,25,18,34,30.20
2020,04,25,18,35,30.20
2020,04,25,18,36,30.20
2020,04,25,18,37,30.20
2020,04,25,18,38,30.20
2020,04,25,18,39,30.20
2020,04,25,18,40,30.20
2020,04,25,18,41,30.20
2020,04,25,18,42,30.20
2020,04,25,18,43,30.20
